UAL347 KTPA-KATL

Flight info

Callsign UAL347
Flight time 1h 8m
Altitude 37000
Route BAYPO2 CAMJO LAIRI/N0453F360 LARZZ JJEDI4
Aircraft B739/M-SDE2E3FGHIRWXY/LB1

Departure

Time 2026-05-08 00:27
Airport Tampa International Airport (KTPA)

Arrival

Time 2026-05-08 01:35
Airport Hartsfield Jackson Atlanta International Airport (KATL)
Time Latitude Longitude Altitude Speed Heading
2026-05-08 00:09 27.97454 -82.53241 42 ft 0 kts 20°
2026-05-08 00:19 27.97439 -82.53247 39 ft 3 kts 20°
2026-05-08 00:20 27.97422 -82.53254 42 ft 3 kts 20°
2026-05-08 00:20 27.97405 -82.53261 41 ft 2 kts 19°
2026-05-08 00:20 27.97388 -82.53260 41 ft 3 kts 315°
2026-05-08 00:20 27.97382 -82.53253 40 ft 0 kts 288°
2026-05-08 00:22 27.97379 -82.53284 42 ft 13 kts 249°
2026-05-08 00:22 27.97315 -82.53384 43 ft 17 kts 262°
2026-05-08 00:22 27.97321 -82.53518 48 ft 17 kts 282°
2026-05-08 00:22 27.97356 -82.53643 53 ft 17 kts 295°
2026-05-08 00:23 27.97426 -82.53777 48 ft 23 kts 302°
2026-05-08 00:23 27.97530 -82.53944 44 ft 27 kts 311°
2026-05-08 00:23 27.97704 -82.53986 45 ft 28 kts
2026-05-08 00:23 27.97906 -82.53980 45 ft 30 kts
2026-05-08 00:24 27.98122 -82.53973 46 ft 32 kts
2026-05-08 00:24 27.98352 -82.53966 47 ft 34 kts
2026-05-08 00:24 27.98551 -82.53957 47 ft 35 kts
2026-05-08 00:25 27.98754 -82.53952 46 ft 37 kts
2026-05-08 00:25 27.99011 -82.53943 46 ft 38 kts
2026-05-08 00:25 27.99262 -82.53938 45 ft 12 kts 358°
2026-05-08 00:26 27.99337 -82.53966 45 ft 12 kts 310°
2026-05-08 00:26 27.99351 -82.54052 45 ft 11 kts 270°
2026-05-08 00:26 27.99325 -82.54129 44 ft 11 kts 207°
2026-05-08 00:26 27.99243 -82.54138 46 ft 22 kts 180°
2026-05-08 00:27 27.98762 -82.54155 51 ft 114 kts 181°
2026-05-08 00:27 27.97724 -82.54202 151 ft 175 kts 183°
2026-05-08 00:27 27.96383 -82.54186 639 ft 208 kts 181°
2026-05-08 00:27 27.94902 -82.54452 1296 ft 227 kts 205°
2026-05-08 00:28 27.93819 -82.55613 2286 ft 221 kts 245°
2026-05-08 00:28 27.93590 -82.57356 2657 ft 239 kts 283°
2026-05-08 00:28 27.94452 -82.59001 3068 ft 255 kts 321°
2026-05-08 00:28 27.96097 -82.59781 3861 ft 263 kts 349°
2026-05-08 00:29 27.97936 -82.59826 4788 ft 267 kts
2026-05-08 00:29 27.99809 -82.59588 5603 ft 274 kts
2026-05-08 00:29 28.01721 -82.59321 6453 ft 279 kts
2026-05-08 00:29 28.03664 -82.59075 7249 ft 283 kts
2026-05-08 00:30 28.05642 -82.58853 8057 ft 287 kts
2026-05-08 00:30 28.07648 -82.58651 8867 ft 291 kts
2026-05-08 00:30 28.09652 -82.58463 9662 ft 295 kts
2026-05-08 00:30 28.11719 -82.58281 10350 ft 303 kts
2026-05-08 00:31 28.13910 -82.58096 10537 ft 328 kts
2026-05-08 00:31 28.16262 -82.57900 10790 ft 347 kts
2026-05-08 00:31 28.18700 -82.57694 11360 ft 355 kts
2026-05-08 00:31 28.21177 -82.57566 12031 ft 357 kts 356°
2026-05-08 00:32 28.23671 -82.57620 12716 ft 360 kts 354°
2026-05-08 00:32 28.26185 -82.57729 13388 ft 364 kts 354°
2026-05-08 00:32 28.28731 -82.57838 14024 ft 368 kts 354°
2026-05-08 00:32 28.31303 -82.57930 14653 ft 370 kts 354°
2026-05-08 00:33 28.33880 -82.58009 15309 ft 372 kts 354°
2026-05-08 00:33 28.36472 -82.58084 15980 ft 373 kts 354°
2026-05-08 00:33 28.39072 -82.58152 16611 ft 376 kts 353°
2026-05-08 00:33 28.41699 -82.58218 17230 ft 378 kts 353°
2026-05-08 00:34 28.44346 -82.58282 17857 ft 380 kts 353°
2026-05-08 00:34 28.46996 -82.58347 18462 ft 382 kts 352°
2026-05-08 00:34 28.49624 -82.58412 19007 ft 384 kts 352°
2026-05-08 00:34 28.52311 -82.58480 19482 ft 388 kts 352°
2026-05-08 00:35 28.55021 -82.58548 19938 ft 392 kts 352°
2026-05-08 00:35 28.57761 -82.58617 20424 ft 395 kts 352°
2026-05-08 00:35 28.60515 -82.58686 20898 ft 398 kts 352°
2026-05-08 00:35 28.63301 -82.58756 21355 ft 401 kts 352°
2026-05-08 00:36 28.66111 -82.58827 21821 ft 405 kts 352°
2026-05-08 00:36 28.68920 -82.58999 22267 ft 405 kts 348°
2026-05-08 00:36 28.71730 -82.59350 22704 ft 406 kts 346°
2026-05-08 00:36 28.74545 -82.59771 23135 ft 409 kts 346°
2026-05-08 00:37 28.77370 -82.60209 23574 ft 413 kts 345°
2026-05-08 00:37 28.80238 -82.60648 23916 ft 416 kts 346°
2026-05-08 00:37 28.83079 -82.61069 24304 ft 418 kts 346°
2026-05-08 00:38 28.88886 -82.61899 25055 ft 423 kts 346°
2026-05-08 00:38 28.91820 -82.62311 25410 ft 425 kts 346°
2026-05-08 00:38 28.94765 -82.62723 25776 ft 428 kts 346°
2026-05-08 00:38 28.97735 -82.63138 26129 ft 430 kts 346°
2026-05-08 00:39 29.00710 -82.63553 26480 ft 433 kts 346°
2026-05-08 00:39 29.03706 -82.63972 26839 ft 435 kts 346°
2026-05-08 00:39 29.06716 -82.64393 27216 ft 437 kts 345°
2026-05-08 00:39 29.09743 -82.64817 27578 ft 439 kts 345°
2026-05-08 00:40 29.12747 -82.65239 27904 ft 441 kts 345°
2026-05-08 00:40 29.15796 -82.65667 28225 ft 444 kts 345°
2026-05-08 00:40 29.18879 -82.66100 28542 ft 446 kts 345°
2026-05-08 00:40 29.21969 -82.66534 28866 ft 449 kts 345°
2026-05-08 00:41 29.25077 -82.66971 29182 ft 451 kts 345°
2026-05-08 00:41 29.28199 -82.67410 29496 ft 453 kts 345°
2026-05-08 00:41 29.31333 -82.67851 29807 ft 455 kts 345°
2026-05-08 00:41 29.34491 -82.68295 30131 ft 458 kts 345°
2026-05-08 00:42 29.37660 -82.68742 30388 ft 460 kts 345°
2026-05-08 00:42 29.40829 -82.69187 30759 ft 459 kts 345°
2026-05-08 00:42 29.44020 -82.69451 31194 ft 463 kts 351°
2026-05-08 00:42 29.47255 -82.69467 31599 ft 463 kts 352°
2026-05-08 00:43 29.50467 -82.69408 32061 ft 462 kts 352°
2026-05-08 00:43 29.53681 -82.69331 32520 ft 459 kts 352°
2026-05-08 00:43 29.55708 -82.69286 32807 ft 458 kts 352°
2026-05-08 00:44 29.58536 -82.69236 33179 ft 456 kts 352°
2026-05-08 00:44 29.59208 -82.69227 33265 ft 456 kts 352°
2026-05-08 00:45 29.60253 -82.69213 33397 ft 455 kts 351°
2026-05-08 00:45 29.62845 -82.69186 33751 ft 454 kts 351°
2026-05-08 00:46 29.64987 -82.69169 34030 ft 453 kts 351°
2026-05-08 00:46 29.68145 -82.69149 34370 ft 452 kts 351°
2026-05-08 00:46 29.71286 -82.69131 34698 ft 451 kts 351°
2026-05-08 00:46 29.74416 -82.69114 35014 ft 450 kts 351°
2026-05-08 00:47 29.77539 -82.69096 35343 ft 449 kts 351°
2026-05-08 00:47 29.80661 -82.69077 35666 ft 447 kts 351°
2026-05-08 00:47 29.83769 -82.69058 35964 ft 447 kts 351°
2026-05-08 00:48 29.90017 -82.69022 35998 ft 449 kts 351°
2026-05-08 00:48 29.96238 -82.68980 36006 ft 448 kts 350°
2026-05-08 00:49 30.02427 -82.68942 36004 ft 448 kts 350°
2026-05-08 00:49 30.08674 -82.68900 36024 ft 451 kts 350°
2026-05-08 00:50 30.15027 -82.68862 36026 ft 460 kts 351°
2026-05-08 00:50 30.21503 -82.68818 36039 ft 469 kts 351°
2026-05-08 00:51 30.28069 -82.68768 35985 ft 472 kts 351°
2026-05-08 00:51 30.34644 -82.68716 35966 ft 473 kts 351°
2026-05-08 00:52 30.41179 -82.68668 35970 ft 472 kts 351°
2026-05-08 00:52 30.47748 -82.68622 35962 ft 472 kts 351°
2026-05-08 00:53 30.54330 -82.68417 35957 ft 476 kts 354°
2026-05-08 00:53 30.60958 -82.67798 35961 ft 478 kts 355°
2026-05-08 00:54 30.67585 -82.67118 35957 ft 477 kts 355°
2026-05-08 00:54 30.73083 -82.66585 35959 ft 476 kts 355°
2026-05-08 00:55 30.80773 -82.65875 35960 ft 477 kts 354°
2026-05-08 00:55 30.86281 -82.65375 35953 ft 477 kts 354°
2026-05-08 00:56 30.92893 -82.64773 35954 ft 477 kts 354°
2026-05-08 00:56 30.99512 -82.64167 35976 ft 477 kts 354°
2026-05-08 00:57 31.06140 -82.63559 35993 ft 477 kts 354°
2026-05-08 00:57 31.12769 -82.62951 35986 ft 478 kts 354°
2026-05-08 00:58 31.19413 -82.62340 35972 ft 479 kts 354°
2026-05-08 00:58 31.26069 -82.61726 35959 ft 479 kts 354°
2026-05-08 00:59 31.32674 -82.61116 35978 ft 480 kts 354°
2026-05-08 00:59 31.39341 -82.60501 35967 ft 480 kts 354°
2026-05-08 01:00 31.45668 -82.59915 35960 ft 481 kts 354°
2026-05-08 01:00 31.52343 -82.59297 35961 ft 481 kts 354°
2026-05-08 01:01 31.58903 -82.58687 35991 ft 481 kts 353°
2026-05-08 01:01 31.65582 -82.58068 35954 ft 481 kts 353°
2026-05-08 01:02 31.72262 -82.57445 35943 ft 481 kts 353°
2026-05-08 01:02 31.78906 -82.56825 35945 ft 481 kts 353°
2026-05-08 01:03 31.85585 -82.56202 35940 ft 481 kts 353°
2026-05-08 01:03 31.92253 -82.55648 35935 ft 472 kts 346°
2026-05-08 01:03 31.95395 -82.56188 35949 ft 444 kts 331°
2026-05-08 01:04 31.98199 -82.57514 35939 ft 426 kts 320°
2026-05-08 01:04 32.00615 -82.59406 35935 ft 408 kts 309°
2026-05-08 01:04 32.02725 -82.61626 35948 ft 407 kts 309°
2026-05-08 01:05 32.06954 -82.66011 35940 ft 408 kts 309°
2026-05-08 01:05 32.11241 -82.70399 35966 ft 408 kts 309°
2026-05-08 01:06 32.15539 -82.74785 35989 ft 408 kts 309°
2026-05-08 01:06 32.19782 -82.79107 35640 ft 396 kts 309°
2026-05-08 01:06 32.21848 -82.81214 35225 ft 389 kts 309°
2026-05-08 01:07 32.23882 -82.83295 34752 ft 385 kts 308°
2026-05-08 01:07 32.25900 -82.85363 34264 ft 381 kts 308°
2026-05-08 01:07 32.27894 -82.87410 33742 ft 377 kts 308°
2026-05-08 01:07 32.29868 -82.89437 33206 ft 374 kts 308°
2026-05-08 01:08 32.31796 -82.91417 32718 ft 370 kts 308°
2026-05-08 01:08 32.33727 -82.93401 32232 ft 365 kts 309°
2026-05-08 01:08 32.35639 -82.95365 31744 ft 362 kts 309°
2026-05-08 01:08 32.37529 -82.97307 31272 ft 358 kts 309°
2026-05-08 01:09 32.39400 -82.99231 30802 ft 355 kts 309°
2026-05-08 01:09 32.41253 -83.01137 30346 ft 352 kts 309°
2026-05-08 01:09 32.43091 -83.03030 29921 ft 349 kts 309°
2026-05-08 01:09 32.44913 -83.04907 29360 ft 346 kts 309°
2026-05-08 01:10 32.46721 -83.06770 28877 ft 342 kts 309°
2026-05-08 01:10 32.48502 -83.08607 28425 ft 337 kts 309°
2026-05-08 01:10 32.50266 -83.10428 27972 ft 333 kts 309°
2026-05-08 01:10 32.52002 -83.12222 27513 ft 330 kts 309°
2026-05-08 01:11 32.53726 -83.14005 27084 ft 327 kts 309°
2026-05-08 01:11 32.55430 -83.15768 26632 ft 324 kts 309°
2026-05-08 01:11 32.57121 -83.17520 26213 ft 321 kts 309°
2026-05-08 01:11 32.58797 -83.19257 25786 ft 319 kts 309°
2026-05-08 01:12 32.60439 -83.20958 25374 ft 316 kts 309°
2026-05-08 01:12 32.62113 -83.22696 24950 ft 315 kts 309°
2026-05-08 01:12 32.63735 -83.24379 24543 ft 313 kts 309°
2026-05-08 01:12 32.65369 -83.26076 24131 ft 312 kts 309°
2026-05-08 01:13 32.67000 -83.27772 23703 ft 311 kts 309°
2026-05-08 01:13 32.68632 -83.29468 23235 ft 311 kts 309°
2026-05-08 01:13 32.70254 -83.31154 22793 ft 309 kts 309°
2026-05-08 01:13 32.71866 -83.32829 22386 ft 307 kts 309°
2026-05-08 01:14 32.73465 -83.34492 21965 ft 304 kts 309°
2026-05-08 01:14 32.75048 -83.36139 21555 ft 302 kts 309°
2026-05-08 01:14 32.76623 -83.37778 21162 ft 299 kts 309°
2026-05-08 01:14 32.78182 -83.39401 20768 ft 297 kts 308°
2026-05-08 01:15 32.79728 -83.41013 20378 ft 294 kts 308°
2026-05-08 01:15 32.81262 -83.42613 19996 ft 292 kts 308°
2026-05-08 01:15 32.82781 -83.44199 19634 ft 290 kts 308°
2026-05-08 01:15 32.84298 -83.45782 19250 ft 288 kts 308°
2026-05-08 01:16 32.85777 -83.47328 18883 ft 286 kts 308°
2026-05-08 01:16 32.87272 -83.48890 18516 ft 285 kts 308°
2026-05-08 01:16 32.88759 -83.50447 18122 ft 284 kts 308°
2026-05-08 01:16 32.90246 -83.52002 17699 ft 283 kts 308°
2026-05-08 01:17 32.91719 -83.53544 17312 ft 281 kts 308°
2026-05-08 01:17 32.93180 -83.55073 16921 ft 279 kts 308°
2026-05-08 01:17 32.94629 -83.56591 16539 ft 276 kts 309°
2026-05-08 01:17 32.96066 -83.58095 16181 ft 274 kts 309°
2026-05-08 01:18 32.97490 -83.59588 15805 ft 272 kts 309°
2026-05-08 01:18 32.98905 -83.61073 15451 ft 270 kts 309°
2026-05-08 01:18 33.00312 -83.62549 15127 ft 268 kts 309°
2026-05-08 01:18 33.01704 -83.64011 14763 ft 266 kts 309°
2026-05-08 01:19 33.03095 -83.65472 14397 ft 265 kts 309°
2026-05-08 01:19 33.04473 -83.66920 14044 ft 263 kts 309°
2026-05-08 01:19 33.05844 -83.68362 13675 ft 262 kts 309°
2026-05-08 01:19 33.07205 -83.69794 13275 ft 260 kts 309°
2026-05-08 01:20 33.08559 -83.71218 12915 ft 258 kts 310°
2026-05-08 01:20 33.09884 -83.72613 12547 ft 257 kts 310°
2026-05-08 01:20 33.11221 -83.74022 12185 ft 256 kts 310°
2026-05-08 01:20 33.12552 -83.75425 11828 ft 254 kts 310°
2026-05-08 01:21 33.13873 -83.76817 11490 ft 253 kts 310°
2026-05-08 01:21 33.15194 -83.78210 11141 ft 253 kts 311°
2026-05-08 01:21 33.16509 -83.79598 10795 ft 252 kts 311°
2026-05-08 01:21 33.17812 -83.80971 10604 ft 246 kts 311°
2026-05-08 01:22 33.19086 -83.82317 10402 ft 245 kts 310°
2026-05-08 01:22 33.20303 -83.83725 10202 ft 246 kts 308°
2026-05-08 01:22 33.21515 -83.85177 10028 ft 239 kts 308°
2026-05-08 01:22 33.22684 -83.86579 9730 ft 238 kts 308°
2026-05-08 01:23 33.23845 -83.87974 9437 ft 236 kts 308°
2026-05-08 01:23 33.25003 -83.89360 9137 ft 235 kts 309°
2026-05-08 01:23 33.26160 -83.90745 8822 ft 235 kts 309°
2026-05-08 01:23 33.27310 -83.92117 8527 ft 233 kts 309°
2026-05-08 01:24 33.28457 -83.93484 8231 ft 232 kts 309°
2026-05-08 01:24 33.29598 -83.94845 8004 ft 229 kts 309°
2026-05-08 01:24 33.30726 -83.96194 7858 ft 232 kts 309°
2026-05-08 01:24 33.31892 -83.97593 7710 ft 242 kts 309°
2026-05-08 01:25 33.33094 -83.99034 7557 ft 248 kts 310°
2026-05-08 01:25 33.34319 -84.00500 7385 ft 249 kts 310°
2026-05-08 01:25 33.35567 -84.01936 7218 ft 252 kts 317°
2026-05-08 01:25 33.37168 -84.02798 7059 ft 262 kts 340°
2026-05-08 01:26 33.39013 -84.03115 6898 ft 264 kts 341°
2026-05-08 01:26 33.40739 -84.03771 6726 ft 259 kts 333°
2026-05-08 01:26 33.42414 -84.04496 6567 ft 259 kts 334°
2026-05-08 01:26 33.44111 -84.05223 6409 ft 259 kts 334°
2026-05-08 01:27 33.45797 -84.05949 6316 ft 256 kts 334°
2026-05-08 01:27 33.47470 -84.06673 6060 ft 259 kts 334°
2026-05-08 01:27 33.49168 -84.07421 5768 ft 258 kts 335°
2026-05-08 01:27 33.50831 -84.08167 5573 ft 252 kts 334°
2026-05-08 01:28 33.52455 -84.08907 5404 ft 248 kts 334°
2026-05-08 01:28 33.54057 -84.09639 5257 ft 247 kts 334°
2026-05-08 01:28 33.55662 -84.10376 5117 ft 245 kts 334°
2026-05-08 01:28 33.57248 -84.11119 4968 ft 243 kts 331°
2026-05-08 01:29 33.58499 -84.12372 4815 ft 234 kts 296°
2026-05-08 01:29 33.58964 -84.14216 4712 ft 232 kts 283°
2026-05-08 01:29 33.59539 -84.15989 4569 ft 226 kts 298°
2026-05-08 01:29 33.60399 -84.17530 4436 ft 217 kts 306°
2026-05-08 01:30 33.61339 -84.18885 4291 ft 205 kts 309°
2026-05-08 01:30 33.62270 -84.20097 4150 ft 188 kts 311°
2026-05-08 01:30 33.62930 -84.21344 3970 ft 173 kts 279°
2026-05-08 01:30 33.62995 -84.22718 3873 ft 159 kts 280°
2026-05-08 01:31 33.63148 -84.23994 3752 ft 149 kts 276°
2026-05-08 01:31 33.63186 -84.25192 3697 ft 147 kts 273°
2026-05-08 01:31 33.63196 -84.26420 3524 ft 143 kts 272°
2026-05-08 01:31 33.63197 -84.27586 3332 ft 138 kts 272°
2026-05-08 01:32 33.63196 -84.28737 3154 ft 139 kts 272°
2026-05-08 01:32 33.63194 -84.29917 2956 ft 145 kts 273°
2026-05-08 01:32 33.63193 -84.31137 2771 ft 146 kts 273°
2026-05-08 01:32 33.63190 -84.32347 2572 ft 144 kts 274°
2026-05-08 01:33 33.63189 -84.33539 2382 ft 141 kts 274°
2026-05-08 01:33 33.63188 -84.34714 2200 ft 142 kts 274°
2026-05-08 01:33 33.63186 -84.35916 2014 ft 144 kts 275°
2026-05-08 01:33 33.63186 -84.37090 1821 ft 142 kts 272°
2026-05-08 01:34 33.63184 -84.38282 1628 ft 145 kts 274°
2026-05-08 01:34 33.63203 -84.39496 1455 ft 147 kts 274°
2026-05-08 01:34 33.63194 -84.40727 1283 ft 146 kts 271°
2026-05-08 01:34 33.63181 -84.41923 1068 ft 143 kts 272°
2026-05-08 01:35 33.63183 -84.42993 1036 ft 110 kts 269°
2026-05-08 01:35 33.63186 -84.43716 1020 ft 62 kts 270°
2026-05-08 01:35 33.63200 -84.44070 1019 ft 24 kts 284°
2026-05-08 01:35 33.63252 -84.44219 1015 ft 16 kts 305°
2026-05-08 01:36 33.63349 -84.44240 1012 ft 16 kts 34°
2026-05-08 01:36 33.63383 -84.44211 1015 ft 0 kts 35°
2026-05-08 01:37 33.63385 -84.44210 1015 ft 2 kts 35°
2026-05-08 01:37 33.63437 -84.44195 1019 ft 11 kts
2026-05-08 01:37 33.63555 -84.44196 1016 ft 24 kts 359°
2026-05-08 01:38 33.63664 -84.44149 1009 ft 19 kts 72°
2026-05-08 01:38 33.63726 -84.44054 1007 ft 12 kts
2026-05-08 01:38 33.63799 -84.44054 1006 ft 10 kts 359°
2026-05-08 01:38 33.63868 -84.44055 1006 ft 10 kts
2026-05-08 01:39 33.63931 -84.44054 1006 ft 6 kts
2026-05-08 01:39 33.63951 -84.44017 1006 ft 6 kts 96°
2026-05-08 01:39 33.63950 -84.43972 1006 ft 4 kts 86°
2026-05-08 01:39 33.63950 -84.43970 1006 ft 0 kts 86°